Hourly Weather Golaczewy

Today, 15 May, Saturday

Time Temperature Precipitation Wind Pressure Humidity
00:00 +9°C° 0 mm 3 mps 720 mmHg 88%
01:00 +9°C° 0 mm 3 mps 720 mmHg 89%
02:00 +8°C° 0 mm 3 mps 720 mmHg 91%
03:00 +8°C° 0 mm 2 mps 720 mmHg 93%
04:00 +7°C° 0 mm 2 mps 720 mmHg 96%
05:00 +9°C° 0 mm 2 mps 720 mmHg 90%
06:00 +10°C° 0 mm 2 mps 720 mmHg 85%
07:00 +12°C° 0 mm 2 mps 721 mmHg 80%
08:00 +14°C° 0 mm 2 mps 721 mmHg 73%
09:00 +15°C° 0 mm 2 mps 721 mmHg 66%
10:00 +16°C° 0 mm 2 mps 721 mmHg 58%
11:00 +18°C° 0 mm 1 mps 721 mmHg 56%
12:00 +18°C° 0 mm 1 mps 720 mmHg 53%
13:00 +19°C° 0 mm 1 mps 720 mmHg 51%
14:00 +18°C° 0.2 mm 2 mps 720 mmHg 57%
15:00 +17°C° 0.2 mm 2 mps 720 mmHg 63%
16:00 +17°C° 0.2 mm 3 mps 720 mmHg 69%
17:00 +15°C° 0.6 mm 2 mps 719 mmHg 74%
18:00 +14°C° 0.6 mm 2 mps 719 mmHg 80%
19:00 +13°C° 0.6 mm 2 mps 719 mmHg 85%
20:00 +13°C° 0.7 mm 2 mps 719 mmHg 87%
21:00 +12°C° 0.7 mm 2 mps 719 mmHg 89%
22:00 +12°C° 0.7 mm 1 mps 719 mmHg 91%
23:00 +11°C° 0.3 mm 1 mps 719 mmHg 91%

Tomorrow, 16 May, Sunday

Time Temperature Precipitation Wind Pressure Humidity
00:00 +11°C° 0.3 mm 1 mps 718 mmHg 91%
01:00 +11°C° 0.3 mm 1 mps 718 mmHg 91%
02:00 +11°C° 0.7 mm 1 mps 718 mmHg 92%
03:00 +10°C° 0.7 mm 1 mps 718 mmHg 94%
04:00 +10°C° 0.7 mm 1 mps 718 mmHg 96%
05:00 +11°C° 0.3 mm 1 mps 718 mmHg 95%
06:00 +11°C° 0.3 mm 1 mps 718 mmHg 94%
07:00 +11°C° 0.3 mm 1 mps 718 mmHg 93%
08:00 +12°C° 0.4 mm 2 mps 718 mmHg 90%
09:00 +13°C° 0.4 mm 2 mps 718 mmHg 88%
10:00 +13°C° 0.4 mm 2 mps 718 mmHg 85%
11:00 +13°C° 1.3 mm 2 mps 718 mmHg 88%
12:00 +11°C° 1.3 mm 3 mps 718 mmHg 90%
13:00 +11°C° 1.3 mm 3 mps 718 mmHg 92%
14:00 +11°C° 1.1 mm 3 mps 718 mmHg 92%
15:00 +11°C° 1.1 mm 3 mps 718 mmHg 91%
16:00 +12°C° 1.1 mm 2 mps 718 mmHg 91%
17:00 +12°C° 0.1 mm 2 mps 718 mmHg 92%
18:00 +10°C° 0.1 mm 2 mps 718 mmHg 93%
19:00 +10°C° 0.1 mm 2 mps 718 mmHg 93%
20:00 +9°C° 0 mm 2 mps 718 mmHg 93%
21:00 +9°C° 0 mm 2 mps 718 mmHg 93%
22:00 +8°C° 0 mm 2 mps 718 mmHg 93%
23:00 +8°C° 0 mm 2 mps 718 mmHg 93%

Day after tomorrow, 17 May, Monday

Time Temperature Precipitation Wind Pressure Humidity
00:00 +7°C° 0 mm 2 mps 718 mmHg 92%
01:00 +7°C° 0 mm 2 mps 718 mmHg 92%
02:00 +7°C° 0 mm 2 mps 718 mmHg 91%
03:00 +8°C° 0 mm 1 mps 718 mmHg 91%
04:00 +8°C° 0 mm 1 mps 718 mmHg 91%
05:00 +8°C° 0 mm 2 mps 718 mmHg 89%
06:00 +9°C° 0 mm 2 mps 718 mmHg 87%
07:00 +10°C° 0 mm 2 mps 719 mmHg 84%
08:00 +12°C° 0.1 mm 2 mps 719 mmHg 85%
09:00 +12°C° 0.1 mm 2 mps 719 mmHg 85%
10:00 +11°C° 0.1 mm 3 mps 719 mmHg 85%
11:00 +12°C° 0.3 mm 3 mps 719 mmHg 82%
12:00 +12°C° 0.3 mm 3 mps 718 mmHg 80%
13:00 +12°C° 0.3 mm 3 mps 718 mmHg 77%
14:00 +13°C° 0.2 mm 3 mps 718 mmHg 76%
15:00 +13°C° 0.2 mm 3 mps 718 mmHg 74%
16:00 +13°C° 0.2 mm 3 mps 718 mmHg 73%
17:00 +12°C° 0.4 mm 3 mps 718 mmHg 79%
18:00 +11°C° 0.4 mm 3 mps 718 mmHg 84%
19:00 +10°C° 0.4 mm 3 mps 718 mmHg 90%
20:00 +9°C° 0.1 mm 3 mps 718 mmHg 91%
21:00 +8°C° 0.1 mm 3 mps 719 mmHg 93%
22:00 +7°C° 0.1 mm 4 mps 719 mmHg 94%
23:00 +8°C° 0 mm 3 mps 719 mmHg 94%

18 May, Tuesday

Time Temperature Precipitation Wind Pressure Humidity
00:00 +7°C° 0 mm 3 mps 719 mmHg 94%
01:00 +7°C° 0 mm 3 mps 719 mmHg 94%
02:00 +7°C° 0 mm 3 mps 719 mmHg 94%
03:00 +7°C° 0 mm 3 mps 719 mmHg 94%
04:00 +7°C° 0 mm 3 mps 719 mmHg 95%
05:00 +6°C° 0 mm 4 mps 720 mmHg 91%
06:00 +7°C° 0 mm 4 mps 720 mmHg 88%
07:00 +8°C° 0 mm 4 mps 720 mmHg 85%
08:00 +9°C° 0.1 mm 5 mps 720 mmHg 79%
09:00 +10°C° 0.1 mm 5 mps 721 mmHg 73%
10:00 +12°C° 0.1 mm 5 mps 721 mmHg 67%
11:00 +12°C° 0.1 mm 5 mps 721 mmHg 69%
12:00 +12°C° 0.1 mm 5 mps 721 mmHg 70%
13:00 +12°C° 0.1 mm 5 mps 721 mmHg 72%
14:00 +12°C° 0.3 mm 5 mps 721 mmHg 73%
15:00 +12°C° 0.3 mm 4 mps 721 mmHg 74%
16:00 +12°C° 0.3 mm 4 mps 721 mmHg 76%
17:00 +11°C° 0.2 mm 4 mps 721 mmHg 79%
18:00 +10°C° 0.2 mm 3 mps 721 mmHg 83%
19:00 +9°C° 0.2 mm 2 mps 721 mmHg 87%
20:00 +9°C° 0.1 mm 2 mps 722 mmHg 89%
21:00 +8°C° 0.1 mm 2 mps 722 mmHg 92%
22:00 +7°C° 0.1 mm 3 mps 722 mmHg 94%
23:00 +7°C° 0 mm 3 mps 722 mmHg 95%

19 May, Wednesday

Time Temperature Precipitation Wind Pressure Humidity
00:00 +7°C° 0 mm 3 mps 722 mmHg 95%
01:00 +7°C° 0 mm 3 mps 723 mmHg 96%
02:00 +7°C° 0 mm 3 mps 723 mmHg 96%
03:00 +5°C° 0 mm 3 mps 723 mmHg 96%
04:00 +5°C° 0 mm 3 mps 723 mmHg 97%
05:00 +7°C° 0 mm 3 mps 723 mmHg 94%
06:00 +7°C° 0 mm 4 mps 723 mmHg 91%
07:00 +8°C° 0 mm 4 mps 724 mmHg 89%
08:00 +8°C° 0.2 mm 4 mps 724 mmHg 87%
09:00 +10°C° 0.2 mm 4 mps 724 mmHg 84%
10:00 +10°C° 0.2 mm 4 mps 724 mmHg 82%
11:00 +11°C° 0.5 mm 4 mps 724 mmHg 82%
12:00 +11°C° 0.5 mm 4 mps 724 mmHg 82%
13:00 +10°C° 0.5 mm 5 mps 724 mmHg 83%
14:00 +10°C° 0.3 mm 4 mps 724 mmHg 83%
15:00 +10°C° 0.3 mm 4 mps 724 mmHg 83%
16:00 +10°C° 0.3 mm 4 mps 724 mmHg 83%
17:00 +8°C° 0.1 mm 4 mps 724 mmHg 85%
18:00 +9°C° 0.1 mm 3 mps 725 mmHg 87%
19:00 +8°C° 0.1 mm 2 mps 725 mmHg 89%
20:00 +7°C° 0 mm 2 mps 725 mmHg 91%
21:00 +7°C° 0 mm 2 mps 725 mmHg 92%
22:00 +6°C° 0 mm 2 mps 725 mmHg 93%
23:00 +6°C° 0 mm 2 mps 725 mmHg 94%

20 May, Thursday

Time Temperature Precipitation Wind Pressure Humidity
00:00 +5°C° 0 mm 2 mps 725 mmHg 95%
01:00 +4°C° 0 mm 3 mps 725 mmHg 95%
02:00 +4°C° 0 mm 3 mps 725 mmHg 95%
03:00 +3°C° 0 mm 3 mps 726 mmHg 96%
04:00 +3°C° 0 mm 3 mps 726 mmHg 96%
05:00 +5°C° 0 mm 3 mps 726 mmHg 92%
06:00 +7°C° 0 mm 3 mps 726 mmHg 87%
07:00 +8°C° 0 mm 4 mps 726 mmHg 83%
08:00 +10°C° 0.1 mm 4 mps 726 mmHg 76%
09:00 +11°C° 0.1 mm 4 mps 726 mmHg 69%
10:00 +13°C° 0.1 mm 4 mps 726 mmHg 63%
11:00 +12°C° 0.2 mm 4 mps 726 mmHg 64%
12:00 +12°C° 0.2 mm 4 mps 726 mmHg 66%
13:00 +12°C° 0.2 mm 4 mps 726 mmHg 68%
14:00 +12°C° 0.2 mm 4 mps 726 mmHg 67%
15:00 +13°C° 0.2 mm 4 mps 726 mmHg 66%
16:00 +13°C° 0.2 mm 4 mps 725 mmHg 65%
17:00 +12°C° 0.2 mm 3 mps 725 mmHg 71%
18:00 +10°C° 0.2 mm 3 mps 725 mmHg 78%
19:00 +9°C° 0.2 mm 2 mps 725 mmHg 84%
20:00 +9°C° 0 mm 2 mps 725 mmHg 85%
21:00 +8°C° 0 mm 2 mps 725 mmHg 87%
22:00 +7°C° 0 mm 2 mps 724 mmHg 89%
23:00 +7°C° 0 mm 3 mps 724 mmHg 89%
Show more